CW1575 Weather Reports


Display with metric or nautical units.
time (UTC)temp
F
wind
direction
speed
MPH
gust
MPH
rain 1hr
in
rain 24hr
in
rain mn
in
humidity
%
barometer
mb
20260505153004 36 0 3.0 5.0 0.01 0.21 0.10 94 1008.3
20260505152504 36 0 2.0 3.0 0.01 0.21 0.10 94 1008.4
20260505152004 36 0 2.0 5.0 0.01 0.21 0.10 94 1008.3
20260505151503 35 0 1.0 3.0 0.01 0.21 0.10 94 1008.2
20260505150503 35 0 2.0 5.0 0.02 0.21 0.10 94 1008.2
20260505140504 35 0 2.0 5.0 0.01 0.19 0.08 93 1008.5
20260505125004 35 0 2.0 5.0 0.02 0.17 0.06 93 1007.1
20260505124503 35 0 2.0 6.0 0.03 0.17 0.06 93 1007.1
20260505124004 35 0 2.0 8.0 0.03 0.17 0.06 92 1007.1
20260505123504 36 0 4.0 8.0 0.03 0.17 0.06 92 1006.9
20260505123004 36 0 3.0 12.0 0.03 0.17 0.06 92 1006.9
20260505122504 36 0 4.0 12.0 0.03 0.16 0.05 92 1006.9
20260505122004 36 0 3.0 10.0 0.03 0.16 0.05 92 1006.9
20260505121504 37 0 5.0 12.0 0.03 0.16 0.05 92 1006.7
20260505121003 37 0 3.0 8.0 0.04 0.16 0.05 92 1006.6
20260505120005 37 0 3.0 8.0 0.03 0.15 0.04 92 1006.4
20260505115505 37 0 3.0 12.0 0.03 0.15 0.04 92 1006.3
20260505114504 38 0 5.0 9.0 0.02 0.14 0.03 92 1006.2
20260505114005 38 0 3.0 12.0 0.02 0.14 0.03 92 1006.1
20260505113005 38 0 5.0 14.0 0.02 0.14 0.03 92 1005.8
20260505112505 38 0 6.0 12.0 0.01 0.13 0.02 92 1005.9
20260505112005 38 0 2.0 10.0 0.02 0.13 0.02 92 1005.9
20260505111505 38 0 4.0 10.0 0.02 0.13 0.02 91 1005.8
20260505111005 39 0 5.0 13.0 0.01 0.12 0.01 91 1005.7
20260505110504 39 0 5.0 12.0 0.01 0.12 0.01 91 1005.7
20260505102004 41 0 6.0 14.0 0.00 0.11 0.00 92 1004.5
20260505101504 41 0 6.0 14.0 0.00 0.11 0.00 92 1004.4
20260505100504 41 0 5.0 10.0 0.00 0.11 0.00 92 1004.3
20260505100005 42 0 3.0 12.0 0.00 0.11 0.00 92 1004.1
20260505095504 42 0 5.0 12.0 0.00 0.11 0.00 92 1004.0
20260505094504 42 0 5.0 12.0 0.00 0.11 0.00 91 1003.9
20260505094006 42 0 7.0 12.0 0.00 0.11 0.00 91 1003.9
20260505093004 42 0 5.0 9.0 0.00 0.11 0.00 91 1003.9
20260505092504 42 0 5.0 13.0 0.00 0.11 0.00 91 1003.8
20260505092005 43 0 5.0 12.0 0.00 0.11 0.00 91 1003.8
20260505091505 43 0 6.0 13.0 0.00 0.11 0.00 91 1003.7
20260505091004 43 0 5.0 18.0 0.00 0.11 0.00 90 1003.5
20260505090004 44 0 7.0 14.0 0.00 0.11 0.00 90 1003.4
20260505085504 45 0 6.0 13.0 0.00 0.11 0.00 91 1003.3
20260505085005 45 0 4.0 12.0 0.00 0.11 0.00 90 1003.2
20260505084504 46 0 5.0 12.0 0.00 0.11 0.00 91 1003.2
20260505084004 47 0 8.0 12.0 0.00 0.11 0.00 92 1003.2
20260505083505 47 0 1.0 3.0 0.00 0.11 0.00 92 1003.2
20260505083005 47 0 1.0 6.0 0.00 0.11 0.00 92 1003.3
20260505082505 47 0 1.0 3.0 0.00 0.11 0.00 92 1003.4
20260505082005 46 0 1.0 3.0 0.00 0.11 0.00 92 1003.3
20260505081005 46 0 0.0 0.0 0.00 0.11 0.00 92 1003.4
20260505080504 46 0 0.0 0.0 0.00 0.11 0.00 92 1003.4
20260505080004 46 0 0.0 0.0 0.00 0.11 0.00 92 1003.3
20260505075504 46 0 0.0 0.0 0.00 0.11 0.00 92 1003.2
20260505075005 46 0 0.0 0.0 0.00 0.11 0.00 91 1003.3
20260505074505 46 0 0.0 0.0 0.00 0.11 0.00 91 1003.3
20260505074005 46 0 0.0 0.0 0.00 0.11 0.00 91 1003.2
20260505073004 46 0 0.0 0.0 0.00 0.11 0.00 91 1003.4
20260505072005 46 0 0.0 0.0 0.00 0.11 0.00 91 1003.4
20260505071504 46 0 0.0 0.0 0.00 0.11 0.00 91 1003.4
20260505071005 46 0 0.0 1.0 0.00 0.11 0.00 91 1003.4
20260505070505 46 0 0.0 1.0 0.00 0.11 0.00 91 1003.6
20260505065004 46 0 0.0 0.0 0.00 0.11 0.00 90 1003.5
20260505064504 46 0 0.0 2.0 0.01 0.11 0.00 90 1003.5
20260505064005 46 0 0.0 2.0 0.01 0.11 0.00 90 1003.4
20260505063505 46 0 0.0 1.0 0.01 0.11 0.00 90 1003.5
20260505063004 46 0 0.0 0.0 0.01 0.11 0.00 90 1003.5
20260505062504 46 0 0.0 1.0 0.01 0.11 0.00 90 1003.4
20260505062005 46 0 0.0 1.0 0.01 0.11 0.00 90 1003.5
20260505061504 46 0 0.0 0.0 0.01 0.11 0.00 89 1003.4
20260505061004 46 0 0.0 0.0 0.01 0.11 0.00 89 1003.5
20260505060504 46 0 0.0 0.0 0.01 0.11 0.00 89 1003.4
20260505060004 46 0 0.0 0.0 0.01 0.11 0.00 89 1003.3
20260505055004 46 0 0.0 0.0 0.01 0.11 0.11 88 1003.4
20260505054504 46 0 0.0 0.0 0.00 0.10 0.10 88 1003.4
20260505053504 46 0 0.0 1.0 0.00 0.10 0.10 88 1003.1
20260505052505 47 0 0.0 0.0 0.00 0.10 0.10 88 1003.1
20260505052004 47 0 0.0 0.0 0.00 0.10 0.10 88 1003.1
20260505051505 47 0 0.0 0.0 0.01 0.10 0.10 88 1003.2
20260505051004 47 0 0.0 0.0 0.01 0.10 0.10 88 1003.5
20260505050504 47 0 0.0 0.0 0.02 0.10 0.10 88 1003.5
20260505041504 48 0 0.0 2.0 0.08 0.09 0.09 85 1003.7
20260505041005 48 0 0.0 2.0 0.09 0.09 0.09 84 1003.7
20260505040004 49 0 0.0 1.0 0.08 0.08 0.08 83 1003.4
20260505035505 49 0 0.0 3.0 0.07 0.07 0.07 83 1003.3
20260505035004 49 0 1.0 3.0 0.07 0.07 0.07 82 1003.4
20260505033005 51 0 2.0 6.0 0.04 0.04 0.04 78 1003.6
20260505032504 52 0 1.0 5.0 0.03 0.03 0.03 77 1003.5
20260505032004 52 0 0.0 3.0 0.02 0.02 0.02 75 1003.4
20260505031504 52 0 1.0 3.0 0.01 0.01 0.01 73 1003.2
20260505031005 52 0 2.0 8.0 0.00 0.00 0.00 70 1003.1
20260505030004 53 0 3.0 9.0 0.00 0.00 0.00 67 1002.8
20260505025505 53 0 1.0 5.0 0.00 0.00 0.00 67 1002.5
20260505024504 54 0 2.0 5.0 0.00 0.00 0.00 66 1002.1
20260505024004 54 0 0.0 3.0 0.00 0.00 0.00 67 1001.9
20260505023005 55 0 0.0 5.0 0.00 0.00 0.00 64 1001.7
20260505022504 55 0 3.0 8.0 0.00 0.00 0.00 63 1001.6
20260505022005 55 0 3.0 12.0 0.00 0.00 0.00 60 1001.5
20260505021504 55 0 6.0 12.0 0.00 0.00 0.00 58 1001.6
20260505021004 56 0 0.0 0.0 0.00 0.00 0.00 55 1001.4
20260505020504 56 0 0.0 0.0 0.00 0.00 0.00 55 1001.3
20260505020004 56 0 0.0 1.0 0.00 0.00 0.00 54 1001.4
20260505015504 56 0 0.0 1.0 0.00 0.00 0.00 54 1001.4
20260505015005 56 0 0.0 0.0 0.00 0.00 0.00 54 1001.4
20260505014004 56 0 0.0 0.0 0.00 0.00 0.00 53 1000.9
20260505013504 57 0 0.0 0.0 0.00 0.00 0.00 54 1000.7
20260505013004 57 0 0.0 0.0 0.00 0.00 0.00 54 1000.9
20260505012504 57 0 0.0 0.0 0.00 0.00 0.00 54 1001.1
20260505011504 57 0 0.0 0.0 0.00 0.00 0.00 53 1000.9
20260505011004 58 0 0.0 1.0 0.00 0.00 0.00 51 1000.8
20260505010504 58 0 0.0 1.0 0.00 0.00 0.00 51 1001.0
20260505005504 58 0 0.0 1.0 0.00 0.00 0.00 51 1001.0
20260505005005 59 0 1.0 3.0 0.00 0.00 0.00 50 1000.9
20260505004504 59 0 1.0 3.0 0.00 0.00 0.00 49 1001.1
20260505004004 59 0 1.0 3.0 0.00 0.00 0.00 47 1001.2
20260505003504 59 0 1.0 10.0 0.00 0.00 0.00 46 1001.2
20260505003004 60 0 3.0 12.0 0.00 0.00 0.00 45 1001.0
20260505002004 60 0 3.0 9.0 0.00 0.00 0.00 44 1000.8
20260505001504 60 0 3.0 9.0 0.00 0.00 0.00 43 1000.7
20260505001005 60 0 3.0 8.0 0.00 0.00 0.00 42 1000.5
20260505000504 61 0 2.0 6.0 0.00 0.00 0.00 42 1000.4
20260505000004 61 0 1.0 9.0 0.00 0.00 0.00 41 1000.2
20260504235504 61 0 1.0 9.0 0.00 0.00 0.00 41 1000.1
20260504235004 61 0 2.0 8.0 0.00 0.00 0.00 41 1000.0
20260504234504 62 0 3.0 9.0 0.00 0.00 0.00 40 999.7
20260504234004 62 0 2.0 8.0 0.00 0.00 0.00 39 999.6
20260504233504 62 0 5.0 12.0 0.00 0.00 0.00 39 999.6
20260504233004 62 0 5.0 12.0 0.00 0.00 0.00 39 999.6
20260504231504 63 0 6.0 12.0 0.00 0.00 0.00 38 999.4
20260504231004 63 0 6.0 14.0 0.00 0.00 0.00 38 999.4
20260504230504 63 0 3.0 12.0 0.00 0.00 0.00 38 999.3
20260504230005 63 0 7.0 13.0 0.00 0.00 0.00 38 999.3
20260504225504 63 0 9.0 15.0 0.00 0.00 0.00 37 999.2
20260504225004 63 0 6.0 10.0 0.00 0.00 0.00 37 999.2
20260504224504 63 0 6.0 12.0 0.00 0.00 0.00 38 999.2
20260504224004 63 0 4.0 12.0 0.00 0.00 0.00 38 999.2
20260504223004 63 0 5.0 10.0 0.00 0.00 0.00 36 999.4
20260504222504 64 0 2.0 10.0 0.00 0.00 0.00 35 999.3
20260504222004 64 0 3.0 9.0 0.00 0.00 0.00 34 999.4
20260504221503 64 0 6.0 12.0 0.00 0.00 0.00 33 999.2
20260504221004 65 0 4.0 12.0 0.00 0.00 0.00 33 999.2
20260504220504 65 0 5.0 12.0 0.00 0.00 0.00 33 999.1
20260504220004 66 0 6.0 14.0 0.00 0.00 0.00 32 998.9
20260504215503 67 0 4.0 15.0 0.00 0.00 0.00 31 998.7
20260504215004 68 0 5.0 14.0 0.00 0.00 0.00 30 998.5
20260504214504 69 0 8.0 18.0 0.00 0.00 0.00 29 998.3
20260504214004 70 0 6.0 20.0 0.00 0.00 0.00 27 998.2
20260504213504 71 0 2.0 8.0 0.00 0.00 0.00 25 997.8
20260504212504 70 0 3.0 5.0 0.00 0.00 0.00 26 997.9
20260504212004 70 0 2.0 8.0 0.00 0.00 0.00 27 998.0
20260504211004 69 0 2.0 9.0 0.00 0.00 0.00 28 998.2
20260504210004 68 0 2.0 10.0 0.00 0.00 0.00 27 998.3
20260504205504 67 0 4.0 10.0 0.00 0.00 0.00 27 998.4
20260504205004 67 0 2.0 9.0 0.00 0.00 0.00 30 998.4
20260504204504 66 0 5.0 9.0 0.00 0.00 0.00 31 998.5
20260504204004 65 0 5.0 14.0 0.00 0.00 0.00 30 998.7
20260504203004 65 0 3.0 12.0 0.00 0.00 0.00 31 998.9
20260504202504 64 0 5.0 13.0 0.00 0.00 0.00 30 998.9
20260504202004 64 0 1.0 10.0 0.00 0.00 0.00 32 999.0
20260504201504 63 0 3.0 10.0 0.00 0.00 0.00 33 998.9
20260504201004 63 0 5.0 15.0 0.00 0.00 0.00 33 998.8
20260504200504 63 0 5.0 15.0 0.00 0.00 0.00 34 998.8
20260504200004 63 0 4.0 10.0 0.00 0.00 0.00 38 999.0
20260504195504 63 0 5.0 10.0 0.00 0.00 0.00 35 999.1
20260504195004 63 0 5.0 15.0 0.00 0.00 0.00 39 999.4
20260504194504 63 0 2.0 9.0 0.00 0.00 0.00 33 999.6
20260504194004 64 0 2.0 3.0 0.00 0.00 0.00 38 999.9
20260504193504 64 0 1.0 3.0 0.00 0.00 0.00 34 1000.0
20260504193004 64 0 2.0 12.0 0.00 0.00 0.00 32 1000.0
20260504192503 64 0 1.0 6.0 0.00 0.00 0.00 31 999.9
20260504191505 65 0 3.0 10.0 0.00 0.00 0.00 29 999.3
20260504190004 68 295 5.0 17.0 0.00 0.00 0.00 27 998.8
20260504185504 70 0 10.0 20.0 0.00 0.00 0.00 26 998.5
20260504184504 71 4 1.0 9.0 0.00 0.00 0.00 23 998.1
20260504184005 72 354 3.0 10.0 0.00 0.00 0.00 22 998.0
20260504183504 72 4 3.0 9.0 0.00 0.00 0.00 22 998.1
20260504183004 73 18 5.0 10.0 0.00 0.00 0.00 22 998.1
20260504182503 73 24 4.0 13.0 0.00 0.00 0.00 23 998.1
20260504182004 73 45 3.0 10.0 0.00 0.00 0.00 22 998.2
20260504181503 73 356 7.0 14.0 0.00 0.00 0.00 22 998.1
20260504181004 73 3 3.0 12.0 0.00 0.00 0.00 23 998.2
20260504180503 74 336 7.0 16.0 0.00 0.00 0.00 23 998.4
20260504180004 74 351 5.0 12.0 0.00 0.00 0.00 21 998.5
20260504175504 74 0 3.0 12.0 0.00 0.00 0.00 22 998.4
20260504175004 74 0 6.0 12.0 0.00 0.00 0.00 23 998.5
20260504174504 74 0 2.0 5.0 0.00 0.00 0.00 24 998.6
20260504174004 74 0 0.0 3.0 0.00 0.00 0.00 23 998.8
20260504173503 74 0 1.0 3.0 0.00 0.00 0.00 26 999.0
20260504173004 73 0 3.0 6.0 0.00 0.00 0.00 23 999.2
20260504172503 73 0 1.0 6.0 0.00 0.00 0.00 24 999.2
20260504172004 72 0 1.0 3.0 0.00 0.00 0.00 24 999.2
20260504171503 72 0 3.0 8.0 0.00 0.00 0.00 25 999.2
20260504171004 72 0 3.0 5.0 0.00 0.00 0.00 25 999.3
20260504170505 72 0 3.0 8.0 0.00 0.00 0.00 25 999.3